Content
SEND FEEDBACK

Daily
Averages
Monthly
Summary
United States of America

WAIKANE, HAWAII


Home > North America > United States > Hawaii
Elevation: 800 feet     Latitude: 21 30N     Longitude: 157 53W

WEATHER
 
SELECT A DAY
Number of Records: 181,669;   Date Range: 1/1/95 - 11/23/14
 
SHARE

PRINT THIS DATA

[ ← Previous Day ]
WEATHER ALMANAC - FEBRUARY 13, 2013
[ Next Day → ]
[ °C ]   °F
Weather ElementAverageHighLow
Temperature72.5 °F78.4 °F (2:57 pm)69.8 °F (2:57 am)
Dewpoint56.6 °F59 °F (6:57 pm)51.1 °F (5:57 am)
Humidity57.5 %65 % (10:57 pm)49 % (1:57 pm)
Barometer28.86 in30.18 in (9:57 am) (7:00 pm)
Wind Speed9 mph12.7 mph (10:57 pm)
Wind Gust19.6 mph (10:57 pm)
Weather ElementAverage
Visibility9.8 mi
Wind DirectionENE (52.1 °)

Weather ElementTotal
Precipitation---
Cooling Degree Days9.1 (Base 65)
Growing Degree Days24.1 (Base 50)
Averaged from 24 records on February 13, 2013
WEATHER CONDITIONS BREAKOUT
WIND DIRECTION BREAKOUT
WEATHER BY HOUR - FEBRUARY 13, 2013
[ °C ]   °F
Local TimeTemperatureDewpointHumidityBarometerVisibilityWind DirectionWind SpeedGust SpeedPrecipitationEventsConditions
1:57 AM71.6 °F55.9 °F58 %30.13 in10.0 miENE (60°)8.1 mphOvercast
2:57 AM69.8 °F55.9 °F61 %30.10 in10.0 miNE (40°)10.4 mph0.00 inOvercast
3:57 AM69.8 °F55.9 °F61 %30.09 in10.0 miNE (50°)9.2 mph18.4 mphOvercast
4:57 AM69.8 °F55.9 °F61 %30.08 in10.0 miNE (50°)6.9 mphMostly Cloudy
5:57 AM69.8 °F51.1 °F51 %30.11 in10.0 miNE (50°)9.2 mphMostly Cloudy
6:57 AM71.6 °F55.0 °F56 %10.0 miENE (60°)8.1 mph17.3 mphOvercast
7:57 AM71.1 °F54.0 °F55 %30.14 in10.0 miNE (50°)10.4 mphOvercast
8:55 AM69.8 °F57.2 °F64 %30.17 in6.2 miNE (40°)11.5 mph18.4 mph0.00 inOvercast
8:57 AM69.8 °F57.0 °F64 %30.17 in10.0 miNE (40°)10.4 mph18.4 mph0.00 inOvercast
9:57 AM73.8 °F57.0 °F56 %30.18 in10.0 miNE (50°)10.4 mphOvercast
10:57 AM75.6 °F55.9 °F50 %30.17 in10.0 miENE (70°)8.1 mphScattered Clouds
11:57 AM74.5 °F55.0 °F51 %30.16 in10.0 miENE (60°)8.1 mphScattered Clouds
12:57 PM75.7 °F57.0 °F52 %30.13 in10.0 miNNE (30°)10.4 mph16.1 mphScattered Clouds
1:57 PM77.4 °F57.0 °F49 %30.09 in10.0 miENE (60°)8.1 mph17.3 mphScattered Clouds
2:57 PM78.4 °F57.9 °F49 %30.08 in10.0 miNE (40°)9.2 mphPartly Cloudy
3:57 PM76.1 °F57.9 °F53 %30.07 in10.0 miENE (60°)10.4 mph17.3 mphOvercast
4:57 PM75.0 °F57.0 °F53 %30.04 in10.0 miENE (70°)8.1 mphOvercast
5:57 PM74.7 °F57.9 °F56 %30.05 in10.0 miENE (60°)10.4 mphMostly Cloudy
6:57 PM71.8 °F59.0 °F64 %30.07 in10.0 miENE (70°)5.8 mphMostly Cloudy
7:57 PM71.1 °F57.0 °F61 %30.09 in10.0 miENE (60°)5.8 mphPartly Cloudy
8:57 PM71.2 °F57.9 °F63 %30.10 in10.0 miENE (60°)9.2 mphOvercast
9:57 PM71.2 °F57.9 °F63 %30.11 in10.0 miNE (50°)5.8 mph0.00 inOvercast
10:57 PM70.2 °F57.9 °F65 %30.11 in10.0 miNE (40°)12.7 mph19.6 mphOvercast
11:57 PM70.2 °F57.0 °F63 %30.09 in10.0 miNNE (30°)8.1 mph0.00 inRainLight Rain
Hourly data recorded from PHNG, located miles away from Waikane, Hawaii







STORIES FROM OUR PARTNERS